McCutcheon Field, NC

2:26 AM EST on December 03, 2016 (GMT -0500)
New River Marine Corps Air Station

Weather History for KNCA - August, 2012

Change the Weather History Date:

Thursday, August 16, 2012

  Actual Average Record
Temperature  
Mean Temperature 79 °F -  
Max Temperature 88 °F 86 °F 95 °F (2005)
Min Temperature 72 °F 69 °F 64 °F (2006)
Cooling Degree Days 14    
Growing Degree Days 29 (Base 50)    
Moisture  
Dew Point 72 °F    
Average Humidity 80    
Maximum Humidity 97    
Minimum Humidity 57    
Precipitation  
Precipitation 0.00 in - - ()
Sea Level Pressure  
Sea Level Pressure 29.98 in    
Wind  
Wind Speed 5 mph (WSW)    
Max Wind Speed 9 mph    
Max Gust Speed -    
Visibility 9 miles    
Events      
Averages and records for this station are not official NWS values.
T = Trace of Precipitation, MM = Missing Value Source: NWS Daily Summary

Daily Weather History Graph

Daily Weather History Graph

Search for Another Location

Airport or City:

Trip Planner

Search our weather history database for the weather conditions in past years. The results will help you decide how hot, cold, wet, or windy it might be!

Date:

Astronomy

Aug. 16, 2012 Rise Set
Actual Time 6:31 AM EDT 7:55 PM EDT
Civil Twilight 6:04 AM EDT 8:22 PM EDT
Nautical Twilight 5:32 AM EDT 8:54 PM EDT
Astronomical Twilight 4:59 AM EDT 9:27 PM EDT
Moon 5:28 AM EDT (8/16) 7:05 PM EDT (8/16)
Length of Visible Light 14h 17m
Length of Day
13h 24m
Waning Crescent, 1% of the Moon is Illuminated
Aug 16
Waning Crescent
Aug 17
New
Aug 24
First Quarter
Aug 31
Full
Sep 8
Last Quarter

Hourly Weather History & Observations

Time (EDT) Temp. Heat Index Dew Point Humidity Pressure Visibility Wind Dir Wind Speed Gust Speed Precip Events Conditions
12:56 AM 75.0 °F - 73.0 °F 94% 29.94 in 9.0 mi WSW 4.6 mph - N/A   Clear
1:56 AM 75.0 °F - 73.0 °F 94% 29.94 in 8.0 mi WSW 5.8 mph - N/A   Clear
2:56 AM 75.0 °F - 73.0 °F 94% 29.93 in 8.0 mi WSW 3.5 mph - N/A   Clear
3:56 AM 73.9 °F - 72.0 °F 93% 29.93 in 7.0 mi WSW 4.6 mph - N/A   Clear
4:56 AM 72.0 °F - 71.1 °F 97% 29.95 in 6.0 mi West 4.6 mph - N/A   Clear
5:56 AM 72.0 °F - 69.1 °F 91% 29.97 in 10.0 mi WNW 5.8 mph - N/A   Clear
6:56 AM 72.0 °F - 69.1 °F 91% 29.99 in 9.0 mi NW 5.8 mph - N/A   Clear
7:56 AM 73.0 °F - 70.0 °F 90% 29.99 in 9.0 mi West 4.6 mph - N/A   Clear
8:56 AM 78.1 °F - 71.1 °F 79% 30.01 in 10.0 mi North 5.8 mph - N/A   Clear
9:56 AM 81.0 °F 84.9 °F 71.1 °F 72% 30.01 in 10.0 mi NNE 8.1 mph - N/A   Partly Cloudy
10:56 AM 82.9 °F 87.5 °F 71.1 °F 67% 30.02 in 10.0 mi ENE 5.8 mph - N/A   Clear
11:56 AM 86.0 °F 92.2 °F 72.0 °F 63% 30.01 in 10.0 mi Variable 3.5 mph - N/A   Mostly Cloudy
12:56 PM 84.9 °F 90.7 °F 72.0 °F 65% 30.00 in 10.0 mi ESE 4.6 mph - N/A   Mostly Cloudy
1:56 PM 84.9 °F 90.1 °F 71.1 °F 63% 30.00 in 10.0 mi NE 3.5 mph - N/A   Mostly Cloudy
2:56 PM 86.0 °F 90.1 °F 69.1 °F 57% 29.99 in 10.0 mi NNE 5.8 mph - N/A   Mostly Cloudy
3:56 PM 86.0 °F 92.2 °F 72.0 °F 63% 29.97 in 10.0 mi Variable 3.5 mph - N/A   Overcast
4:56 PM 84.9 °F 90.7 °F 72.0 °F 65% 29.96 in 10.0 mi South 4.6 mph - N/A   Scattered Clouds
5:56 PM 82.0 °F 86.7 °F 72.0 °F 71% 29.96 in 10.0 mi South 9.2 mph - N/A   Mostly Cloudy
6:56 PM 82.0 °F 87.4 °F 73.0 °F 74% 29.97 in 10.0 mi South 3.5 mph - N/A   Partly Cloudy
7:56 PM 78.1 °F - 73.0 °F 84% 29.97 in 10.0 mi SSE 4.6 mph - N/A   Clear
8:56 PM 77.0 °F - 72.0 °F 84% 29.97 in 10.0 mi Calm Calm - N/A   Clear
9:56 PM 75.9 °F - 73.0 °F 91% 29.99 in 10.0 mi Calm Calm - N/A   Clear
10:56 PM 75.9 °F - 73.0 °F 91% 30.00 in 10.0 mi Calm Calm - N/A   Clear
11:56 PM 75.0 °F - 73.0 °F 94% 30.01 in 7.0 mi Calm Calm - N/A   Mostly Cloudy